User: anonymous   Login
Location: Newark
(34.1333°N, 7.9667°W)
Time: 05:24:10
(UTC+00:00)
Language:

CAS-4A - Orbit

View from above orbital plane
View from above orbital plane
View from above satellite
View from above satellite

Ground track
Ground track

The orbit data is extracted from the following two-line orbital elements,

1 42761U 17034D   23152.60334013  .00007663  00000-0  38940-3 0  9997
2 42761  43.0137 200.8366 0011551 356.5582   3.5185 15.17192018329272
Epoch (UTC): 01 June 2023 14:28:48
Eccentricity: 0.0011551
inclination: 43.0137°
perigee height: 506 km
apogee height: 522 km
right ascension of ascending node: 200.8366°
argument of perigee: 356.5582°
revolutions per day: 15.17192018
mean anomaly at epoch: 3.5185°
orbit number at epoch: 32927

The dashed part of the orbit path shows where the satellite is in the earth's shadow,  

DLR